#timestamp,LO_Frequency,Hit,StdDev 
1552219215.4,286046996.6,P
1552219235.2,286046999.6,N
1552219255.0,286046999.0,N
1552219255.9,286046999.0,N
1552219275.8,286046998.1,N
1552219295.6,286046999.0,N
1552219315.4,286046999.9,N
1552219335.3,286046998.7,N
1552219355.1,286047000.4,N
1552219375.9,286047000.6,N
1552219395.7,286047000.6,N
1552219415.5,286047000.5,N
1552219435.4,286047003.9,Y
1552219455.2,286047003.5,P
1552219475.0,286047003.2,N
1552219475.9,286047003.2,N
1552219495.8,286047003.7,N
1552219515.6,286047004.2,N
1552219535.5,286047001.7,N
1552219555.3,286047002.6,N
1552219575.1,286047002.2,N
1552219595.9,286047003.2,N
1552219615.7,286047004.4,Y
1552219635.5,286046998.5,P
1552219655.4,286046999.6,N
1552219675.2,286046998.2,N
1552219695.1,286046998.9,N
1552219696.0,286046998.9,N
1552219715.8,286047001.2,N
1552219735.6,286047000.0,N
1552219755.5,286047000.6,N
1552219775.3,286047000.1,N
1552219795.1,286047000.3,N
1552219815.9,286047000.5,N
1552219835.7,286047000.9,N
1552219855.6,286047000.5,N
1552219875.4,286047000.9,N
1552219895.2,286047000.9,N
1552219915.1,286047001.9,N
1552219916.0,286047001.9,N
1552219935.8,286047002.6,N
1552219955.6,286047000.4,N
1552219975.5,286047000.8,N
1552219995.3,286046998.8,N
1552220015.2,286046998.3,N
1552220035.9,286046998.1,N
1552220055.7,286047000.8,N
1552220075.6,286046999.9,N
1552220095.4,286047001.2,N
1552220115.3,286047000.7,N
1552220135.1,286046999.9,N
1552220136.0,286046999.9,N
1552220155.8,286047002.1,N
1552220175.7,286047002.1,N
1552220195.5,286047001.7,N
1552220215.4,286047002.0,N
1552220235.2,286047002.1,N
1552220255.0,286047002.6,N
1552220255.9,286047002.6,N
1552220275.8,286047002.4,N
1552220295.6,286047001.8,N
1552220315.5,286047002.1,N
1552220335.3,286047001.7,N
1552220355.1,286047002.9,N
1552220375.9,286047019.9,Y
1552220395.7,286047018.1,P
1552220415.5,286047009.9,N
1552220435.4,286047009.2,N
1552220455.2,286047006.3,N
1552220475.1,286047006.6,N
1552220476.0,286047006.6,N
1552220495.8,286047006.4,N
1552220515.6,286047007.5,N
1552220535.5,286047006.0,N
1552220555.3,286047005.4,N
1552220575.1,286047003.0,N
1552220595.9,286047001.7,N
1552220615.7,286046999.7,N
1552220635.6,286047002.3,N
1552220655.4,286046999.9,N
1552220675.2,286047002.1,N
1552220695.1,286047001.7,N
1552220696.0,286047001.7,N
1552220715.8,286047001.3,N
1552220735.6,286047001.0,N
1552220755.5,286047002.6,N
1552220775.3,286047000.4,N
1552220795.2,286047002.1,N
1552220815.9,286046999.9,N
1552220835.1,286047000.2,N
1552220855.9,286047000.3,N
1552220875.7,286047000.8,N
1552220895.6,286046998.1,N
1552220915.4,286047000.6,N
1552220935.2,286047000.4,N
1552220955.1,286047000.9,N
1552220956.0,286047000.9,N
1552220975.8,286046998.1,N
1552220995.6,286046998.2,N
1552221015.5,286046998.4,N
1552221035.3,286046998.7,N
1552221055.2,286046998.2,N
1552221075.9,286046998.2,N
1552221095.7,286047000.8,N
1552221115.6,286047000.7,N
1552221135.4,286046998.7,N
1552221155.2,286046998.2,N
1552221175.1,286046998.8,N
1552221176.0,286046998.8,N
1552221195.8,286046998.5,N
1552221215.7,286046998.3,N
1552221235.5,286046999.0,N
1552221255.3,286047000.7,N
1552221275.2,286047000.9,N
1552221295.0,286046998.4,N
1552221295.9,286046998.4,N
1552221315.7,286046999.1,N
1552221335.6,286046996.7,N
1552221355.4,286046999.1,N
1552221375.3,286047001.1,N
1552221395.1,286046997.2,N
1552221396.0,286046997.2,N
1552221415.8,286046999.4,N
1552221435.7,286046997.2,N
1552221455.5,286046997.1,N
1552221475.4,286046997.0,N
1552221495.2,286046999.4,N
1552221515.0,286046999.0,N
1552221515.9,286046999.0,N
1552221535.8,286047001.2,N
1552221555.6,286046999.1,N
1552221575.4,286046999.0,N
1552221595.3,286046998.9,N
1552221615.1,286046997.4,N
1552221635.9,286046995.0,Y
1552221655.7,286046995.2,P
1552221675.5,286046996.4,N
1552221695.4,286046993.6,P
1552221715.2,286046996.1,N
1552221735.0,286046995.7,N
1552221735.9,286046995.7,N
1552221755.8,286046997.9,N
1552221775.6,286046997.3,N
1552221795.5,286046999.1,N
1552221815.3,286046999.3,N
1552221835.1,286047000.3,N
1552221855.9,286047002.3,N
1552221875.7,286047000.0,N
1552221895.5,286047000.2,N
1552221915.4,286046998.7,N
1552221935.2,286046999.4,N
1552221955.0,286046997.0,N
1552221956.0,286046997.0,N
1552221975.8,286046996.7,N
1552221995.6,286046998.9,N
1552222015.5,286046999.6,N
1552222035.3,286046998.1,N
1552222055.1,286046998.1,N
1552222075.9,286047000.1,N
1552222095.7,286047001.1,N
1552222115.5,286046998.4,N
1552222135.4,286047000.7,N
1552222155.2,286046999.9,N
1552222175.1,286047001.7,N
1552222176.0,286047001.7,N
1552222195.8,286047001.4,N
1552222215.6,286047006.0,N
1552222235.5,286047001.3,N
1552222255.3,286047002.8,N
1552222275.2,286047002.4,N
1552222295.9,286047001.9,N
1552222315.7,286047002.5,N
1552222335.6,286047002.8,N
1552222355.4,286047002.0,N
1552222375.3,286047002.2,N
1552222395.1,286047002.1,N
1552222396.0,286047002.1,N
1552222415.8,286047001.8,N
1552222435.7,286047001.5,N
1552222455.5,286047002.5,N
1552222475.3,286047001.3,N
1552222495.2,286047002.5,N
1552222515.0,286047002.1,N
1552222515.9,286047002.1,N
1552222535.8,286047001.9,N
1552222555.6,286047002.0,N
1552222575.4,286047002.2,N
1552222595.3,286046999.7,N
1552222615.1,286047002.8,N
1552222635.8,286046999.8,N
1552222655.7,286047002.1,N
1552222675.5,286046999.7,N
1552222695.3,286047002.2,N
1552222715.2,286046999.7,N
1552222735.0,286047002.4,N
1552222735.9,286047002.4,N
1552222755.8,286047000.7,N
1552222775.6,286047000.7,N
1552222795.5,286047000.6,N
